Regional Weather Roundup
Issued by NWS

Home | Current Version | Previous Version | Text Only | Print | Product List | Glossary Off
Versions: 1 2 3 4 5 6 7 8 9 10 11 12 13 14 15 16 17 18 19 20 21 22 23 24 25 26 27 28 29 30 31 32 33 34 35 36 37 38 39 40 41 42 43 44 45 46 47 48 49 50

000
ASUS43 KTOP 210459
RWRKS

WEATHER ROUNDUP FOR KANSAS
NATIONAL WEATHER SERVICE GOODLAND KS
1200 AM CDT MON MAY 21 2018

NOTE:  "FAIR" INDICATES FEW OR NO CLOUDS BELOW 12,000 FEET WITH NO
SIGNIFICANT WEATHER AND/OR OBSTRUCTIONS TO VISIBILITY.

KSZ001>006-013>018-027>032-041>047-210600-
NORTHWEST KANSAS

CITY           SKY/WX    TMP DP  RH WIND       PRES   REMARKS
GOODLAND       MOCLDY    48  47  96 SE5       30.13F
HAYS           PTCLDY    53  52  96 N5        30.13S
HILL CITY      CLOUDY    51  51 100 S3        30.14R FOG
RUSSELL        MOCLDY    55  55 100 N6        30.11S
$$

KSZ061>065-074>080-084>089-210600-
SOUTHWEST KANSAS

CITY           SKY/WX    TMP DP  RH WIND       PRES   REMARKS
DODGE CITY     CLEAR     53  49  86 NE6       30.14R
GARDEN CITY    CLEAR     53  50  89 E10       30.13F
GREAT BEND     CLEAR     56  54  93 N7        30.13S
LIBERAL        CLEAR     58  50  75 E9        30.13S
$$

KSZ066>073-081>083-090>101-210600-
SOUTHEAST KANSAS

CITY           SKY/WX    TMP DP  RH WIND       PRES   REMARKS
CHANUTE        CLOUDY    63  62  97 NW8       30.07R
COFFEYVILLE    CLOUDY    64  62  93 NW8       30.06R
HUTCHINSON     MOCLDY    59  57  93 N8        30.11R
MEDICINE LODGE   N/A     58  55  90 N9          N/A
NEWTON         CLOUDY    58  57  97 N6        30.11R
PARSONS        CLOUDY    62  62 100 N5        30.07R
WICHITA INTL   MOCLDY    62  59  90 NE5       30.10R
WICHITA JABRA  CLOUDY    58  58 100 CALM      30.10R
WICHITA MCCONL CLOUDY    61  58  88 CALM      30.09R
WINFIELD       CLOUDY    57  57 100 CALM      30.09R
$$

KSZ007>012-019>026-033>040-048>060-102>105-210600-
NORTHEAST KANSAS

CITY           SKY/WX    TMP DP  RH WIND       PRES   REMARKS
CONCORDIA      CLOUDY    55  53  93 N9        30.11S
EMPORIA        CLEAR     58  56  93 W5        30.08R
LAWRENCE       PTCLDY    61  61 100 W6        30.04S FOG
MANHATTAN      CLOUDY    59  57  93 CALM      30.09S
OLATHE IND     CLOUDY    63  62  97 W5        30.05R FOG
OLATHE EXE     CLOUDY    62  62 100 W6        30.04R
SALINA         CLOUDY    60  57  89 N10       30.11S
TOPEKA BILLARD PTCLDY    62  62 100 W6        30.05S FOG
TOPEKA FORBES  CLEAR     61  60  97 W7        30.05S FOG
$$




USA.gov is the U.S. government's official web portal to all federal, state and local government web resources and services.